When you browse on this site, cookies collect data to enhance your experience and personalize the content and advertising you see.
Visit our Privacy Policy to learn more. By continuing to use the site, you agree to this use of cookies and data.
  • In Latvia
  • List of Countries
  • For 7 days
  • Water Temperature
  • Weather Map
  • Weather Widgets
  • user-avatar
    Login

    Hourly Weather Natitingou

    Today, 16 December, Monday

    Time Temperature Precipitation Wind Pressure Humidity
    00:00 +25°C° 0 mm 3 mps 717 mmHg 13%
    01:00 +24°C° 0 mm 2 mps 717 mmHg 13%
    02:00 +24°C° 0 mm 2 mps 716 mmHg 13%
    03:00 +23°C° 0 mm 2 mps 716 mmHg 13%
    04:00 +23°C° 0 mm 2 mps 716 mmHg 13%
    05:00 +22°C° 0 mm 3 mps 716 mmHg 13%
    06:00 +21°C° 0 mm 3 mps 716 mmHg 13%
    07:00 +25°C° 0 mm 3 mps 717 mmHg 12%
    08:00 +27°C° 0 mm 3 mps 718 mmHg 11%
    09:00 +30°C° 0 mm 4 mps 718 mmHg 10%
    10:00 +33°C° 0 mm 3 mps 718 mmHg 9%
    11:00 +35°C° 0 mm 3 mps 717 mmHg 9%
    12:00 +37°C° 0 mm 3 mps 717 mmHg 8%
    13:00 +38°C° 0 mm 3 mps 716 mmHg 9%
    14:00 +38°C° 0 mm 2 mps 715 mmHg 9%
    15:00 +38°C° 0 mm 2 mps 714 mmHg 9%
    16:00 +36°C° 0 mm 2 mps 714 mmHg 10%
    17:00 +32°C° 0 mm 2 mps 714 mmHg 12%
    18:00 +30°C° 0 mm 2 mps 714 mmHg 14%
    19:00 +29°C° 0 mm 2 mps 715 mmHg 14%
    20:00 +28°C° 0 mm 2 mps 716 mmHg 14%
    21:00 +27°C° 0 mm 2 mps 716 mmHg 14%
    22:00 +27°C° 0 mm 2 mps 716 mmHg 14%
    23:00 +26°C° 0 mm 2 mps 716 mmHg 14%

    Tomorrow, 17 December, Tuesday

    Time Temperature Precipitation Wind Pressure Humidity
    00:00 +26°C° 0 mm 2 mps 716 mmHg 14%
    01:00 +25°C° 0 mm 2 mps 716 mmHg 14%
    02:00 +25°C° 0 mm 3 mps 715 mmHg 14%
    03:00 +25°C° 0 mm 3 mps 715 mmHg 15%
    04:00 +24°C° 0 mm 2 mps 715 mmHg 15%
    05:00 +23°C° 0 mm 2 mps 715 mmHg 15%
    06:00 +23°C° 0 mm 2 mps 716 mmHg 15%
    07:00 +26°C° 0 mm 2 mps 716 mmHg 13%
    08:00 +28°C° 0 mm 3 mps 717 mmHg 12%
    09:00 +31°C° 0 mm 3 mps 718 mmHg 11%
    10:00 +34°C° 0 mm 3 mps 717 mmHg 10%
    11:00 +36°C° 0 mm 3 mps 717 mmHg 9%
    12:00 +38°C° 0 mm 2 mps 717 mmHg 9%
    13:00 +39°C° 0 mm 2 mps 716 mmHg 9%
    14:00 +39°C° 0 mm 1 mps 715 mmHg 9%
    15:00 +40°C° 0 mm 1 mps 715 mmHg 10%
    16:00 +36°C° 0 mm 1 mps 715 mmHg 12%
    17:00 +34°C° 0 mm 1 mps 715 mmHg 14%
    18:00 +31°C° 0 mm 1 mps 714 mmHg 16%
    19:00 +30°C° 0 mm 1 mps 715 mmHg 17%
    20:00 +29°C° 0 mm 1 mps 716 mmHg 17%
    21:00 +28°C° 0 mm 2 mps 716 mmHg 18%
    22:00 +27°C° 0 mm 1 mps 716 mmHg 18%
    23:00 +27°C° 0 mm 1 mps 716 mmHg 19%

    Day after tomorrow, 18 December, Wednesday

    Time Temperature Precipitation Wind Pressure Humidity
    00:00 +26°C° 0 mm 1 mps 716 mmHg 19%
    01:00 +25°C° 0 mm 1 mps 715 mmHg 20%
    02:00 +25°C° 0 mm 1 mps 715 mmHg 21%
    03:00 +24°C° 0 mm 1 mps 715 mmHg 22%
    04:00 +23°C° 0 mm 1 mps 715 mmHg 23%
    05:00 +23°C° 0 mm 1 mps 716 mmHg 24%
    06:00 +22°C° 0 mm 1 mps 716 mmHg 25%
    07:00 +26°C° 0 mm 1 mps 717 mmHg 22%
    08:00 +29°C° 0 mm 1 mps 718 mmHg 19%
    09:00 +32°C° 0 mm 1 mps 719 mmHg 16%
    10:00 +34°C° 0 mm 1 mps 718 mmHg 15%
    11:00 +37°C° 0 mm 1 mps 718 mmHg 13%
    12:00 +40°C° 0 mm 1 mps 717 mmHg 12%
    13:00 +40°C° 0 mm 1 mps 717 mmHg 12%
    14:00 +40°C° 0 mm 1 mps 716 mmHg 12%
    15:00 +39°C° 0 mm 2 mps 715 mmHg 12%
    16:00 +37°C° 0 mm 2 mps 715 mmHg 14%
    17:00 +34°C° 0 mm 1 mps 715 mmHg 16%
    18:00 +31°C° 0 mm 1 mps 716 mmHg 19%
    19:00 +30°C° 0 mm 2 mps 716 mmHg 19%
    20:00 +29°C° 0 mm 2 mps 716 mmHg 20%
    21:00 +28°C° 0 mm 2 mps 717 mmHg 21%
    22:00 +28°C° 0 mm 2 mps 717 mmHg 22%
    23:00 +27°C° 0 mm 2 mps 717 mmHg 22%

    19 December, Thursday

    Time Temperature Precipitation Wind Pressure Humidity
    00:00 +27°C° 0 mm 2 mps 716 mmHg 23%
    01:00 +27°C° 0 mm 3 mps 716 mmHg 24%
    02:00 +26°C° 0 mm 3 mps 716 mmHg 24%
    03:00 +26°C° 0 mm 3 mps 716 mmHg 24%
    04:00 +26°C° 0 mm 3 mps 716 mmHg 25%
    05:00 +25°C° 0 mm 3 mps 716 mmHg 25%
    06:00 +25°C° 0 mm 3 mps 717 mmHg 26%
    07:00 +27°C° 0 mm 3 mps 717 mmHg 24%
    08:00 +29°C° 0 mm 4 mps 718 mmHg 21%
    09:00 +32°C° 0 mm 4 mps 718 mmHg 19%
    10:00 +34°C° 0 mm 4 mps 718 mmHg 17%
    11:00 +36°C° 0 mm 4 mps 717 mmHg 15%
    12:00 +38°C° 0 mm 4 mps 717 mmHg 14%
    13:00 +38°C° 0 mm 4 mps 716 mmHg 14%
    14:00 +39°C° 0 mm 3 mps 715 mmHg 13%
    15:00 +39°C° 0 mm 3 mps 715 mmHg 13%
    16:00 +37°C° 0 mm 3 mps 715 mmHg 15%
    17:00 +34°C° 0 mm 2 mps 715 mmHg 17%
    18:00 +31°C° 0 mm 2 mps 715 mmHg 19%
    19:00 +30°C° 0 mm 2 mps 716 mmHg 20%
    20:00 +29°C° 0 mm 2 mps 716 mmHg 20%
    21:00 +28°C° 0 mm 3 mps 716 mmHg 21%
    22:00 +28°C° 0 mm 3 mps 716 mmHg 21%
    23:00 +27°C° 0 mm 3 mps 716 mmHg 20%

    20 December, Friday

    Time Temperature Precipitation Wind Pressure Humidity
    00:00 +27°C° 0 mm 3 mps 716 mmHg 20%
    01:00 +26°C° 0 mm 3 mps 716 mmHg 20%
    02:00 +26°C° 0 mm 3 mps 716 mmHg 19%
    03:00 +26°C° 0 mm 4 mps 716 mmHg 18%
    04:00 +25°C° 0 mm 3 mps 716 mmHg 19%
    05:00 +24°C° 0 mm 3 mps 717 mmHg 20%
    06:00 +23°C° 0 mm 2 mps 717 mmHg 21%
    07:00 +25°C° 0 mm 2 mps 717 mmHg 19%
    08:00 +27°C° 0 mm 2 mps 718 mmHg 17%
    09:00 +29°C° 0 mm 2 mps 718 mmHg 15%
    10:00 +32°C° 0 mm 2 mps 718 mmHg 13%
    11:00 +35°C° 0 mm 2 mps 718 mmHg 12%
    12:00 +37°C° 0 mm 2 mps 717 mmHg 11%
    13:00 +37°C° 0 mm 2 mps 716 mmHg 11%
    14:00 +38°C° 0 mm 2 mps 716 mmHg 11%
    15:00 +38°C° 0 mm 2 mps 715 mmHg 10%
    16:00 +36°C° 0 mm 2 mps 715 mmHg 12%
    17:00 +32°C° 0 mm 2 mps 715 mmHg 14%
    18:00 +30°C° 0 mm 2 mps 715 mmHg 15%
    19:00 +29°C° 0 mm 2 mps 715 mmHg 15%
    20:00 +28°C° 0 mm 2 mps 716 mmHg 15%
    21:00 +27°C° 0 mm 2 mps 716 mmHg 15%
    22:00 +27°C° 0 mm 3 mps 716 mmHg 15%
    23:00 +26°C° 0 mm 3 mps 716 mmHg 15%

    21 December, Saturday

    Time Temperature Precipitation Wind Pressure Humidity
    00:00 +26°C° 0 mm 3 mps 716 mmHg 15%
    01:00 +25°C° 0 mm 3 mps 716 mmHg 16%
    02:00 +25°C° 0 mm 3 mps 716 mmHg 16%
    03:00 +24°C° 0 mm 3 mps 716 mmHg 17%
    04:00 +22°C° 0 mm 3 mps 716 mmHg 18%
    05:00 +21°C° 0 mm 2 mps 716 mmHg 19%
    06:00 +20°C° 0 mm 2 mps 717 mmHg 20%
    07:00 +24°C° 0 mm 3 mps 717 mmHg 18%
    08:00 +27°C° 0 mm 3 mps 718 mmHg 15%
    09:00 +30°C° 0 mm 4 mps 719 mmHg 13%
    10:00 +33°C° 0 mm 4 mps 719 mmHg 12%
    11:00 +35°C° 0 mm 3 mps 718 mmHg 11%
    12:00 +37°C° 0 mm 3 mps 718 mmHg 10%
    13:00 +38°C° 0 mm 3 mps 717 mmHg 10%
    14:00 +38°C° 0 mm 3 mps 716 mmHg 10%
    15:00 +38°C° 0 mm 3 mps 716 mmHg 10%
    16:00 +36°C° 0 mm 3 mps 716 mmHg 11%
    17:00 +32°C° 0 mm 2 mps 716 mmHg 13%
    18:00 +30°C° 0 mm 2 mps 716 mmHg 14%
    19:00 +29°C° 0 mm 2 mps 716 mmHg 14%
    20:00 +28°C° 0 mm 2 mps 716 mmHg 14%
    21:00 +27°C° 0 mm 3 mps 717 mmHg 14%
    22:00 +26°C° 0 mm 3 mps 717 mmHg 13%
    23:00 +26°C° 0 mm 3 mps 717 mmHg 13%
    Show more